| time (UTC) | temp F | wind direction | speed MPH | gust MPH | rain 1hr in | rain 24hr in | rain mn in | humidity % | barometer mb |
| 20260504180136 | 72 | 180 | 9.0 | 11.0 | 0.00 | 0.00 | 0.00 | 21 | 1014.3 |
| 20260504175200 | 72 | 225 | 11.0 | 13.0 | 0.00 | 0.00 | 0.00 | 21 | 1014.2 |
| 20260504174116 | 73 | 225 | 8.0 | 9.0 | 0.00 | 0.00 | 0.00 | 20 | 1014.2 |
| 20260504173140 | 74 | 225 | 6.0 | 8.0 | 0.00 | 0.00 | 0.00 | 21 | 1014.3 |
| 20260504172116 | 74 | 180 | 6.0 | 8.0 | 0.00 | 0.00 | 0.00 | 20 | 1014.0 |
| 20260504171140 | 75 | 180 | 8.0 | 11.0 | 0.00 | 0.00 | 0.00 | 20 | 1014.2 |
| 20260504170136 | 75 | 180 | 8.0 | 12.0 | 0.00 | 0.00 | 0.00 | 20 | 1014.1 |
| 20260504160116 | 79 | 158 | 7.0 | 8.0 | 0.00 | 0.00 | 0.00 | 20 | 1014.6 |
| 20260504151140 | 79 | 225 | 9.0 | 12.0 | 0.00 | 0.00 | 0.00 | 20 | 1014.8 |
| 20260504150136 | 79 | 180 | 8.0 | 10.0 | 0.00 | 0.00 | 0.00 | 20 | 1014.6 |
| 20260504141200 | 79 | 315 | 7.0 | 11.0 | 0.00 | 0.00 | 0.00 | 20 | 1015.4 |
| 20260504140116 | 79 | 248 | 4.0 | 4.0 | 0.00 | 0.00 | 0.00 | 20 | 1015.6 |
| 20260504110644 | 76 | 180 | 10.0 | 11.0 | 0.00 | 0.00 | 0.00 | 20 | 1017.2 |
| 20260504081708 | 64 | 90 | 4.0 | 5.0 | 0.00 | 0.00 | 0.00 | 33 | 1018.7 |
| 20260504080709 | 63 | 0 | 4.0 | 5.0 | 0.00 | 0.00 | 0.00 | 38 | 1018.9 |
| 20260504050648 | 58 | 180 | 6.0 | 7.0 | 0.00 | 0.00 | 0.00 | 37 | 1018.6 |
| 20260504045624 | 57 | 180 | 4.0 | 4.0 | 0.00 | 0.00 | 0.00 | 38 | 1018.6 |
| 20260504044748 | 56 | 180 | 3.0 | 4.0 | 0.00 | 0.00 | 0.00 | 40 | 1018.5 |
| 20260504043624 | 56 | 225 | 4.0 | 5.0 | 0.00 | 0.00 | 0.00 | 38 | 1018.2 |
| 20260504042708 | 56 | 225 | 2.0 | 3.0 | 0.00 | 0.00 | 0.00 | 38 | 1018.3 |
| 20260504041624 | 55 | 270 | 2.0 | 2.0 | 0.00 | 0.00 | 0.00 | 40 | 1018.2 |
| 20260504040728 | 55 | 180 | 3.0 | 4.0 | 0.00 | 0.00 | 0.00 | 40 | 1018.3 |
| 20260504035644 | 54 | 180 | 2.0 | 3.0 | 0.00 | 0.00 | 0.00 | 42 | 1018.4 |
| 20260504034709 | 54 | 225 | 4.0 | 5.0 | 0.00 | 0.00 | 0.00 | 41 | 1018.2 |
| 20260504033624 | 54 | 270 | 2.0 | 4.0 | 0.00 | 0.00 | 0.00 | 41 | 1018.2 |
| 20260504032728 | 55 | 225 | 3.0 | 4.0 | 0.00 | 0.00 | 0.00 | 39 | 1018.2 |
| 20260504031624 | 55 | 225 | 3.0 | 4.0 | 0.00 | 0.00 | 0.00 | 38 | 1018.3 |
| 20260504030708 | 55 | 225 | 4.0 | 6.0 | 0.00 | 0.00 | 0.00 | 37 | 1018.3 |
| 20260504025624 | 55 | 225 | 7.0 | 8.0 | 0.00 | 0.00 | 0.00 | 36 | 1018.2 |
| 20260504024649 | 56 | 225 | 8.0 | 10.0 | 0.00 | 0.00 | 0.00 | 35 | 1018.2 |
| 20260504023624 | 56 | 180 | 6.0 | 10.0 | 0.00 | 0.00 | 0.00 | 35 | 1018.4 |
| 20260504022808 | 56 | 270 | 5.0 | 8.0 | 0.00 | 0.00 | 0.00 | 38 | 1018.5 |
| 20260504021704 | 55 | 338 | 5.0 | 10.0 | 0.00 | 0.00 | 0.00 | 37 | 1018.5 |
| 20260504020648 | 55 | 315 | 4.0 | 6.0 | 0.00 | 0.00 | 0.00 | 39 | 1018.5 |
| 20260504015624 | 55 | 315 | 4.0 | 6.0 | 0.00 | 0.00 | 0.00 | 38 | 1018.4 |
| 20260504014648 | 55 | 225 | 4.0 | 5.0 | 0.00 | 0.00 | 0.00 | 39 | 1018.3 |
| 20260504013646 | 55 | 270 | 3.0 | 4.0 | 0.00 | 0.00 | 0.00 | 39 | 1018.4 |
| 20260504012708 | 56 | 225 | 4.0 | 6.0 | 0.00 | 0.00 | 0.00 | 40 | 1018.3 |
| 20260504011624 | 56 | 225 | 2.0 | 2.0 | 0.00 | 0.00 | 0.00 | 38 | 1018.3 |
| 20260504010648 | 56 | 225 | 1.0 | 2.0 | 0.00 | 0.00 | 0.00 | 38 | 1018.4 |
| 20260504005624 | 55 | 270 | 2.0 | 2.0 | 0.00 | 0.00 | 0.00 | 37 | 1018.0 |
| 20260504004648 | 55 | 270 | 1.0 | 2.0 | 0.00 | 0.00 | 0.00 | 36 | 1018.1 |
| 20260504003644 | 56 | 225 | 2.0 | 2.0 | 0.00 | 0.00 | 0.00 | 34 | 1018.2 |
| 20260504002648 | 57 | 180 | 2.0 | 2.0 | 0.00 | 0.00 | 0.00 | 34 | 1018.2 |
| 20260504001626 | 57 | 180 | 2.0 | 2.0 | 0.00 | 0.00 | 0.00 | 36 | 1018.1 |
| 20260504000708 | 57 | 180 | 2.0 | 2.0 | 0.00 | 0.00 | 0.00 | 35 | 1018.1 |
| 20260503235644 | 57 | 180 | 2.0 | 3.0 | 0.00 | 0.00 | 0.00 | 35 | 1018.4 |
| 20260503234709 | 58 | 315 | 1.0 | 2.0 | 0.00 | 0.00 | 0.00 | 36 | 1018.1 |
| 20260503233644 | 58 | 270 | 1.0 | 2.0 | 0.00 | 0.00 | 0.00 | 35 | 1018.2 |
| 20260503232648 | 58 | 315 | 2.0 | 3.0 | 0.00 | 0.00 | 0.00 | 35 | 1018.2 |
| 20260503231624 | 58 | 270 | 4.0 | 4.0 | 0.00 | 0.00 | 0.00 | 34 | 1018.3 |
| 20260503230648 | 59 | 180 | 5.0 | 8.0 | 0.00 | 0.00 | 0.00 | 34 | 1018.3 |
| 20260503225624 | 60 | 180 | 4.0 | 6.0 | 0.00 | 0.00 | 0.00 | 33 | 1018.3 |
| 20260503224708 | 60 | 180 | 6.0 | 8.0 | 0.00 | 0.00 | 0.00 | 33 | 1018.5 |
| 20260503223624 | 60 | 135 | 9.0 | 11.0 | 0.00 | 0.00 | 0.00 | 33 | 1018.4 |
| 20260503222728 | 59 | 180 | 5.0 | 7.0 | 0.00 | 0.00 | 0.00 | 34 | 1018.4 |
| 20260503221644 | 59 | 180 | 2.0 | 4.0 | 0.00 | 0.00 | 0.00 | 36 | 1018.4 |
| 20260503220648 | 59 | 180 | 4.0 | 5.0 | 0.00 | 0.00 | 0.00 | 36 | 1018.5 |
| 20260503215624 | 59 | 180 | 2.0 | 3.0 | 0.00 | 0.00 | 0.00 | 35 | 1018.5 |
| 20260503214708 | 59 | 270 | 5.0 | 7.0 | 0.00 | 0.00 | 0.00 | 35 | 1018.6 |
| 20260503213644 | 59 | 225 | 4.0 | 5.0 | 0.00 | 0.00 | 0.00 | 36 | 1018.6 |
| 20260503212648 | 59 | 270 | 2.0 | 2.0 | 0.00 | 0.00 | 0.00 | 35 | 1018.3 |
| 20260503211724 | 59 | 315 | 1.0 | 2.0 | 0.00 | 0.00 | 0.00 | 36 | 1018.6 |
| 20260503210648 | 60 | 180 | 3.0 | 4.0 | 0.00 | 0.00 | 0.00 | 35 | 1018.4 |
| 20260503205644 | 60 | 180 | 1.0 | 2.0 | 0.00 | 0.00 | 0.00 | 35 | 1018.3 |
| 20260503204648 | 60 | 248 | 1.0 | 2.0 | 0.00 | 0.00 | 0.00 | 34 | 1018.5 |
| 20260503203624 | 61 | 180 | 3.0 | 4.0 | 0.00 | 0.00 | 0.00 | 34 | 1018.3 |
| 20260503202708 | 62 | 270 | 2.0 | 4.0 | 0.00 | 0.00 | 0.00 | 33 | 1018.5 |
| 20260503201644 | 62 | 225 | 4.0 | 6.0 | 0.00 | 0.00 | 0.00 | 33 | 1018.4 |
| 20260503200708 | 63 | 225 | 7.0 | 9.0 | 0.00 | 0.00 | 0.00 | 33 | 1018.4 |
| 20260503195704 | 63 | 180 | 8.0 | 10.0 | 0.00 | 0.00 | 0.00 | 33 | 1018.3 |
| 20260503194708 | 64 | 180 | 7.0 | 8.0 | 0.00 | 0.00 | 0.00 | 31 | 1018.2 |
| 20260503193625 | 64 | 225 | 8.0 | 9.0 | 0.00 | 0.00 | 0.00 | 31 | 1018.2 |
| 20260503192648 | 64 | 180 | 7.0 | 10.0 | 0.00 | 0.00 | 0.00 | 31 | 1018.3 |
| 20260503191624 | 64 | 180 | 6.0 | 7.0 | 0.00 | 0.00 | 0.00 | 30 | 1018.1 |
| 20260503190728 | 65 | 158 | 6.0 | 8.0 | 0.00 | 0.00 | 0.00 | 27 | 1017.7 |
| 20260503185624 | 66 | 180 | 6.0 | 8.0 | 0.00 | 0.00 | 0.00 | 27 | 1018.0 |
| 20260503184648 | 66 | 180 | 3.0 | 5.0 | 0.00 | 0.00 | 0.00 | 27 | 1017.9 |
| 20260503183624 | 67 | 135 | 4.0 | 4.0 | 0.00 | 0.00 | 0.00 | 27 | 1017.7 |
| 20260503182648 | 67 | 90 | 5.0 | 7.0 | 0.00 | 0.00 | 0.00 | 27 | 1017.4 |
| 20260503181645 | 67 | 135 | 4.0 | 8.0 | 0.00 | 0.00 | 0.00 | 27 | 1017.6 |
| 20260503180648 | 67 | 225 | 6.0 | 8.0 | 0.00 | 0.00 | 0.00 | 27 | 1017.6 |